Regional Weather Roundup
Issued by NWS

Home | Current Version | Previous Version | Graphics & Text | Print | Product List | Glossary Off
Versions: 1 2 3 4 5 6 7 8 9 10 11 12 13 14 15 16 17 18 19 20 21 22 23 24 25 26 27 28 29 30 31 32 33 34 35 36 37 38 39 40 41 42 43 44 45 46 47 48 49 50

000
ASUS43 KDMX 242307
RWRIA

WEATHER ROUNDUP FOR IOWA
NATIONAL WEATHER SERVICE DES MOINES IA
600 PM CDT SUN MAY 24 2015

NOTE: "FAIR" INDICATES FEW OR NO CLOUDS BELOW 12,000 FEET WITH NO
SIGNIFICANT WEATHER AND/OR OBSTRUCTIONS TO VISIBILITY.

* - THESE STATIONS ARE NOT NWS STATIONS...THUS NOT UNDER NWS
QUALITY CONTROL.  THEY ALSO DO NOT REPORT WEATHER SUCH
AS PRECIPITATION OR FOG.

IAZ001>003-012>014-020>022-031>034-043>046-250000-
   NORTHWEST IOWA

CITY           SKY/WX    TMP DP  RH WIND       PRES   REMARKS
CARROLL *      CLOUDY    66  64  94 SW9       29.79S
CHEROKEE *     CLOUDY    63  63 100 SW3       29.79S
DENISON *      CLOUDY    64  64 100 SW7       29.78S
LE MARS *      CLOUDY    64  61  88 CALM      29.80S
ORANGE CITY *  CLOUDY    63  59  88 CALM      29.79S
SHELDON *      CLOUDY    63  54  72 E7        29.78S HAZE
SIOUX CITY     CLOUDY    66  59  78 CALM      29.79F
SPENCER        CLOUDY    64  62  93 SE5       29.79F
STORM LAKE *   CLOUDY    63  63 100 SW7       29.80S
$$

IAZ055>058-069>071-079>083-090>094-250000-
   SOUTHWEST IOWA

CITY           SKY/WX    TMP DP  RH WIND       PRES   REMARKS
ATLANTIC *     PTSUNNY   68  64  88 SW7       29.80F
AUDUBON *      LGT RAIN  66  63  88 SW7       29.81S
CLARINDA *     PTSUNNY   70  63  78 SW14      29.82F
COUNCIL BLFS * SUNNY     68  68 100 SW6       29.81S
CRESTON *      PTSUNNY   68  66  94 SW13      29.81S
HARLAN  *      PTSUNNY   68  68 100 SW7       29.83F
LAMONI         CLOUDY    71  64  78 SW10      29.82S
RED OAK *      PTSUNNY   70  64  83 SW9       29.81S
SHENANDOAH *   MOSUNNY   70  64  83 S15       29.81S
$$

IAZ047>049-059>061-072>074-084-250000-
   CENTRAL IOWA

CITY           SKY/WX    TMP DP  RH WIND       PRES   REMARKS
AMES           CLOUDY    70  63  78 S9        29.80S
ANKENY *       PTSUNNY   72  64  78 S8        29.80S
CHARITON *     CLOUDY    70  63  78 S9        29.81F
DES MOINES     CLOUDY    72  64  76 S7        29.80S
GRINNELL*      CLOUDY    70  64  83 S7        29.82F
KNOXVILLE *    PTSUNNY   70  64  83 S7        29.80S
MARSHALLTOWN   LGT RAIN  70  65  84 S12       29.80F
PELLA *        CLOUDY    70  68  94 S7        29.82F
PERRY *        CLOUDY    68  64  88 S10       29.80R
$$

IAZ004>006-015-016-023>025-035-036-250000-
   NORTH CENTRAL IOWA

CITY           SKY/WX    TMP DP  RH WIND       PRES   REMARKS
ALGONA *       CLOUDY    63  63 100 S8        29.80F FOG
CLARION *      CLOUDY    66  66 100 S10       29.80F
ESTHERVILLE    CLOUDY    61  61 100 SE7       29.79F FOG
FORT DODGE *   CLOUDY    64  61  88 S5        29.80F
MASON CITY     CLOUDY    62  61  96 SE12      29.83F FOG
FOREST CITY *  DRIZZLE   61  61 100 SE7       29.81F
IOWA FALLS *   CLOUDY    66  64  94 SE7       29.82F
$$

IAZ007>011-017>019-026>030-037>042-050>054-066-250000-
   NORTHEAST IOWA

CITY           SKY/WX    TMP DP  RH WIND       PRES   REMARKS
CEDAR RAPIDS   CLOUDY    71  68  90 SE9       29.83F
CHARLES CITY * CLOUDY    63  63 100 SE9       29.84F FOG
CLINTON *      MOSUNNY   72  66  83 N5        29.89F
DECORAH *      CLOUDY    61  59  94 SE8G15    29.86F FOG
DUBUQUE        CLOUDY    64  61  90 E9        29.89F FOG
MONTICELLO *   PTSUNNY   68  68 100 E7        29.85F
OELWEIN *      PTSUNNY   66  64  94 E8        29.85F FOG
WATERLOO       CLOUDY    68  64  87 SE9       29.81F
$$

IAZ064-065-067-068-078-250000-
   EAST CENTRAL IOWA

CITY           SKY/WX    TMP DP  RH WIND       PRES   REMARKS
DAVENPORT      PTSUNNY   74  68  81 S7        29.86F
IOWA CITY      CLOUDY    71  67  87 SE6       29.85S
MT. PLEASANT * HVY RAIN  68  68 100 SW8G18    29.85R
MUSCATINE *    MOSUNNY   73  68  83 CALM      29.84F
QUAD CITIES    LGT RAIN  73  68  84 S8        29.86S
$$

IAZ062-063-075>077-085>089-095>099-250000-
   SOUTHEAST IOWA

CITY           SKY/WX    TMP DP  RH WIND       PRES   REMARKS
BURLINGTON     MOSUNNY   78  67  68 S16       29.82F HX  80
FAIRFIELD *    DRZL/FOG  68  66  94 S7        29.84R VSB 3/4
FORT MADISON * LGT RAIN  75  66  73 S15G22    29.84S
KEOKUK *       LGT RAIN  75  68  78 S14       29.85R
OSKALOOSA *    PTSUNNY   72  66  83 S8        29.82F
CENTERVILLE *  CLOUDY    68  68 100 S7        29.84S
OTTUMWA        CLOUDY    71  67  87 S6        29.81F
WASHINGTON *   CLOUDY    70  68  94 SE5       29.84F
$$

ABBREVIATIONS USED IN REMARKS
   TC - TEMPERATURES IN CELSIUS
  WCI - WIND CHILL INDEX
   HX - HEAT INDEX
  VSB - VISIBILITY
$$



USA.gov is the U.S. government's official web portal to all federal, state and local government web resources and services.